Terminal Aerodrome Forecast
Issued by NWS Tiyan, Guam

Home | Current Version | Previous Version | Text Only | Print | Product List | Glossary On
Versions: 1 2 3 4 5 6 7 8 9 10 11 12 13 14 15 16 17 18 19 20 21 22 23
000
FTPQ31 PGUM 242300
TAFPQ
TAF
PGUM 242339Z 2500/2606 07013G22KT P6SM FEW020 SCT060
     FM250800 07010KT P6SM VCSH SCT020=

USA.gov is the U.S. government's official web portal to all federal, state and local government web resources and services.